TITAN 3C TRANSTAGE DEB, 1682

Orbit data source: Space-Track

TITAN 3C TRANSTAGE DEB, 1682 is space debris in LEO originally from a launch on Fri, 15 Oct 1965 UTC launched from the Air Force Eastern Test Range (AFETR). Debris objects in space refer to the collection of defunct objects orbiting the Earth. Examples of debris include non-operational satellites, rocket bodies, and fragments generated from explosions, collisions, or faulty payload assembly.

Loading next visibility...
Identifier
1682, 1965-082AV
Orbit
LEO
Country
Flag of USUS
Related business
Manufacturer
Unknown
Mission
Spacecraft
Bus & Motor
Unknown
Mass
Unknown
Launch date (UTC)
1965-10-15 (60 years ago)
Launch vehicle
Unknown
Launch site
Air Force Eastern Test Range (AFETR)
Object type
Payload
Rocket body
Debris
Shape & HBR
Unknown shape, 0.3 m
Radar Cross Section
Medium (>0.1 m² and <1 m²)

Expand to show TLE details & history
Last TLE update: 7 hours ago

TLE from 7 hours ago
0 TITAN 3C TRANSTAGE DEB
1 01682U 65082AV  25307.94231196  .00002732  00000-0  40079-3 0  9997
2 01682  32.4120 271.0843 0048973 249.1940 110.3463 14.73369409157227
Epoch: 2025-11-03T22:36Z
TLE epoch observation values (Epoch: 2025-11-03T22:36:55.753Z)
Latitude
0.00002°
Longitude
-111.58442°
Altitude
661.115 km
Speed
7.523 km/s
True Right ascension
18h 04m 20s
True Declination
0° 00' 00"
Sunlit
Object was in daylight at epoch
Visualization orbit readout
Latitude
Unknown
Longitude
Unknown
Altitude
Unknown
Speed
Unknown
Apparent Right ascension
Unknown
Apparent Declination
Unknown
Sunlit
N/A
Visualization observer readout
Local Sidereal Time
01:42:42
Azimuth
Unknown
Elevation
Unknown
Doppler factor
Unknown
Orbital elements
Apogee altitude
688.342 km
Perigee altitude
619.466 km
Semi-major axis
7,032.041 km
Eccentricity
0.0049
Inclination
32.412°
RAAN
271.0843°
Arg. of periapsis
249.194°
True anomaly
110.87135°
Mean anomaly
110.3463°
Eccentric anomaly
110.60894°
Mean motion
3.68062 °/min
Orbital period
97.81 mins
BSTAR
0.00040079

Documentation

Showing up to 5 results
|